Temperature
8 8 7 7 7 7 7 7 7 7 7 7 6 6 6 6 6 6 6 6 6 6 5 5 5 5 5 5 5 4 4 4 3 4 4 4 3 3 3 3 3 3 3
8 7 7 7 7 7 7 7 6 6 6 6 6 6 6 6 6 6 6 5 5 5 5 5 5 5 5 4 4 4 4 3 3 3 4 3 3 3 3 3 2 2 2
7 7 7 7 7 7 6 6 6 6 6 6 6 6 6 5 5 5 5 5 5 5 5 5 4 4 4 4 4 4 3 3 3 2 3 2 2 2 2 2 2 2 2
7 7 7 7 6 6 6 6 6 6 6 6 5 5 5 5 5 5 5 5 5 4 4 4 4 4 4 4 3 3 3 2 2 2 2 2 2 2 1 2 2 2 2
7 7 6 6 6 6 6 6 6 5 5 5 5 5 5 5 5 5 4 4 4 4 4 4 4 3 3 3 3 2 2 2 2 1 1 1 1 1 1 1 1 1 1
6 6 6 6 6 6 5 5 5 5 5 5 5 5 4 4 4 4 4 4 4 3 3 3 3 3 3 2 2 2 2 1 1 1 1 1 1 0 -0 -0 -0 -1 -0
6 6 6 6 6 5 5 5 5 5 5 4 4 4 4 4 4 3 3 3 3 3 3 3 3 2 2 2 2 1 1 1 1 0 0 0 -0 -0 -1 -1 -1 -1 -1
6 6 6 5 5 5 5 5 4 4 4 4 4 4 4 3 3 3 3 3 3 2 2 2 2 2 1 1 1 1 1 0 0 -0 -0 -0 -1 -1 -1 -2 -2 -2 -2
6 5 5 5 5 5 4 4 4 4 4 4 4 3 3 3 3 3 2 2 2 2 2 2 1 1 1 1 0 0 0 0 -0 -1 -1 -1 -1 -2 -2 -2 -2 -3 -3
5 5 5 5 5 4 4 4 4 3 3 3 3 3 3 3 2 2 2 2 2 2 1 1 1 0 0 0 -0 -0 -0 -0 -1 -1 -1 -1 -2 -2 -2 -3 -3 -3 -4
5 5 4 4 4 4 4 3 3 3 3 2 2 2 2 2 2 2 1 1 1 1 1 1 0 -0 -0 -0 -1 -1 -1 -1 -1 -2 -2 -2 -2 -2 -3 -3 -3 -4 -4
4 4 4 4 4 3 3 3 3 2 2 2 2 2 1 1 1 1 1 1 0 0 0 -0 -0 -1 -1 -1 -1 -1 -2 -2 -2 -2 -2 -3 -3 -3 -3 -3 -4 -4 -4
4 4 4 3 3 3 3 3 2 2 2 2 1 1 1 1 1 1 0 0 -0 -0 -1 -1 -1 -1 -1 -2 -2 -2 -2 -2 -3 -3 -3 -3 -3 -4 -4 -4 -4 -4 -5
3 3 3 3 3 3 2 2 2 2 1 1 1 1 1 1 1 0 0 -0 -1 -1 -1 -1 -2 -2 -2 -2 -2 -2 -3 -3 -3 -3 -4 -4 -4 -4 -4 -5 -5 -5 -5
3 3 3 2 2 2 2 2 2 2 1 1 1 1 0 0 0 -0 -1 -1 -1 -1 -2 -2 -2 -2 -2 -2 -3 -3 -3 -3 -4 -4 -4 -4 -4 -5 -5 -5 -5 -6 -6
2 2 2 2 2 2 2 1 1 1 1 0 0 0 0 -0 -1 -1 -1 -1 -2 -2 -2 -2 -2 -3 -3 -3 -3 -3 -4 -4 -4 -4 -4 -5 -5 -5 -5 -6 -6 -6 -6
2 2 2 1 1 1 1 1 1 1 0 0 -0 -0 -1 -1 -1 -1 -1 -2 -2 -2 -3 -3 -3 -3 -4 -4 -4 -4 -4 -4 -5 -5 -5 -5 -6 -6 -6 -6 -7 -7 -7
1 1 1 1 1 1 0 0 0 -0 -0 -0 -0 -1 -1 -1 -1 -2 -2 -2 -2 -3 -3 -3 -4 -4 -4 -4 -4 -5 -5 -5 -5 -5 -6 -6 -6 -6 -7 -7 -7 -7 -7
1 0 0 0 0 0 -0 -0 -1 -1 -1 -1 -1 -1 -1 -2 -2 -2 -3 -3 -3 -3 -4 -4 -4 -4 -4 -5 -5 -5 -5 -5 -6 -6 -6 -6 -7 -7 -7 -7 -7 -8 -8
-0 -0 -0 -0 -0 -1 -1 -1 -1 -1 -2 -2 -2 -2 -2 -3 -3 -3 -3 -3 -4 -4 -4 -4 -4 -5 -5 -5 -5 -6 -6 -6 -6 -6 -7 -7 -7 -7 -8 -8 -8 -8 -8
-1 -1 -1 -1 -1 -1 -2 -2 -2 -2 -2 -2 -3 -3 -3 -3 -4 -4 -4 -4 -4 -4 -5 -5 -5 -5 -5 -5 -6 -6 -6 -6 -7 -7 -7 -7 -7 -8 -8 -8 -8 -8 -8
-1 -1 -2 -2 -2 -2 -2 -2 -3 -3 -3 -3 -3 -3 -4 -4 -4 -4 -5 -5 -5 -5 -5 -5 -5 -5 -6 -6 -6 -6 -6 -7 -7 -7 -7 -8 -8 -8 -8 -8 -8 -9 -9
-2 -2 -2 -2 -2 -3 -3 -3 -3 -4 -4 -4 -4 -4 -4 -4 -5 -5 -5 -5 -5 -5 -5 -5 -5 -6 -6 -6 -6 -6 -7 -7 -7 -8 -8 -8 -8 -8 -8 -9 -9 -9 -9
-2 -2 -3 -3 -3 -3 -3 -4 -4 -4 -4 -4 -4 -4 -5 -5 -5 -5 -5 -5 -5 -6 -6 -6 -6 -6 -6 -6 -6 -7 -7 -7 -7 -8 -8 -8 -8 -9 -9 -9 -9 -9 -9
-3 -3 -3 -3 -3 -4 -4 -4 -4 -5 -5 -5 -5 -5 -5 -5 -6 -6 -6 -6 -6 -6 -6 -6 -6 -6 -6 -7 -7 -7 -7 -7 -8 -8 -8 -8 -9 -9 -9 -9 -9 -9 -9
-3 -3 -4 -4 -4 -5 -5 -5 -5 -5 -5 -5 -5 -5 -6 -6 -6 -6 -6 -6 -6 -6 -6 -7 -7 -7 -7 -7 -7 -7 -7 -8 -8 -8 -8 -9 -9 -9 -9 -9 -9 -9 -9
Wind_Speed
4 4 4 3 3 3 4 4 4 4 4 4 4 3 3 3 3 3 4 4 4 4 3 4 4 3 3 3 3 3 3 3 5 4 3 2 3 3 6 7 8 9 10
4 4 4 4 3 3 4 4 4 4 4 4 3 3 4 4 4 4 5 5 5 5 5 4 5 4 4 4 4 4 4 4 4 6 3 3 4 4 4 4 7 8 10
4 4 4 4 4 4 4 3 3 3 3 3 3 4 4 4 4 5 5 5 5 5 5 5 5 5 5 4 5 5 4 4 4 4 4 3 3 3 3 4 4 6 8
4 5 5 5 5 4 4 3 3 3 4 4 4 4 4 4 4 4 4 4 4 4 5 5 5 6 6 6 5 6 5 4 4 4 4 4 3 3 2 3 4 4 5
4 5 5 5 4 3 3 3 3 3 4 4 3 3 3 3 4 4 4 4 4 4 4 4 5 6 8 7 5 5 5 4 4 4 5 4 4 3 4 3 4 5 5
5 6 4 4 4 4 3 3 2 2 3 3 3 4 3 3 5 6 4 4 4 4 4 4 4 5 7 8 9 9 8 6 6 5 5 6 6 5 4 4 4 4 4
5 4 4 4 4 4 3 3 3 3 3 3 4 4 4 4 6 6 6 3 4 4 5 4 4 4 5 4 7 8 8 10 10 7 7 7 6 5 4 5 5 5 6
4 4 4 4 4 3 3 3 3 2 2 3 3 3 3 4 5 5 5 3 3 4 4 4 4 5 4 4 3 4 5 6 7 6 7 7 6 6 6 5 5 5 5
4 5 5 5 4 4 4 4 3 2 2 2 2 3 3 4 5 5 3 2 3 4 4 4 4 5 7 6 3 4 5 5 7 9 9 9 10 10 7 3 3 4 5
5 5 4 5 5 5 5 3 2 2 3 2 2 3 3 3 4 5 3 2 2 2 2 3 5 6 7 7 4 4 5 5 4 4 5 6 6 6 7 4 4 4 4
4 3 3 4 5 5 4 2 2 2 2 2 2 2 3 4 4 5 4 2 3 2 2 2 3 6 7 7 6 4 7 5 3 3 3 3 3 3 3 4 4 4 5
2 3 4 4 4 3 4 3 3 3 3 2 2 2 2 3 3 4 5 4 3 2 3 3 3 6 7 7 5 6 7 5 2 2 3 3 3 3 3 4 5 6 7
3 3 3 3 3 3 4 4 3 3 3 3 3 3 3 2 3 5 4 4 4 2 3 4 5 6 5 4 5 6 4 2 2 3 3 4 3 3 3 2 3 4 5
3 4 3 3 3 3 3 4 4 4 4 4 4 4 3 2 3 2 2 2 3 3 2 3 5 5 3 4 4 3 2 2 2 3 3 3 2 2 2 2 3 3 3
4 4 3 3 4 4 4 5 5 6 6 6 5 4 4 4 5 6 4 3 3 3 2 1 1 1 1 2 2 2 2 2 3 2 3 3 3 3 3 2 2 2 3
3 3 3 3 3 3 3 3 5 5 7 8 7 5 5 6 7 7 7 6 6 5 3 2 2 2 3 3 3 3 3 3 3 3 3 4 4 4 4 3 3 3 5
5 4 4 4 4 4 3 3 3 2 4 5 6 6 6 6 6 6 7 6 6 5 3 3 3 3 4 4 3 3 3 3 3 3 4 4 4 4 3 4 4 4 5
4 5 4 4 4 4 4 4 3 3 3 2 4 5 6 6 6 6 6 4 3 3 3 3 4 4 4 4 4 4 4 3 3 4 4 4 4 4 4 4 4 5 6
3 3 3 3 3 4 3 3 3 4 4 3 2 3 5 6 6 6 5 3 3 4 4 4 4 4 4 4 4 4 4 4 4 4 4 4 4 4 5 5 5 7 7
3 4 3 3 3 3 3 3 3 3 3 4 4 3 2 2 2 3 3 3 3 4 4 4 4 4 4 4 4 4 4 4 5 5 5 5 5 5 6 6 6 6 6
3 3 3 2 3 3 3 3 3 3 4 4 4 5 6 3 4 4 3 3 4 4 4 4 4 4 4 4 4 5 5 5 5 5 5 5 5 5 5 5 6 6 5
2 2 2 3 3 3 3 3 3 4 4 4 4 4 7 3 3 3 4 4 4 4 4 4 4 4 4 4 4 5 5 5 5 5 5 5 5 5 5 5 5 5 5
3 3 2 2 3 4 3 3 3 4 4 4 3 3 3 3 3 3 4 4 4 4 3 4 4 4 4 5 5 5 6 6 6 5 5 6 5 5 5 6 6 6 6
3 3 3 3 3 3 3 3 3 3 3 3 3 3 3 3 3 4 4 4 4 4 4 4 5 6 7 6 6 7 8 9 8 7 7 7 6 6 5 6 6 7 6
3 3 3 3 3 3 3 3 3 3 3 3 4 3 3 3 3 4 4 4 4 4 5 5 5 6 7 8 8 8 10 11 11 9 7 6 7 7 6 7 6 6 6
3 3 3 3 3 3 3 3 4 4 4 4 4 4 4 4 4 4 4 4 4 4 5 5 6 7 8 8 9 10 11 11 11 11 8 6 6 6 6 6 6 6 6
Wind_Direction
192 193 193 195 194 189 196 211 214 212 207 203 205 206 208 211 203 201 209 204 209 221 216 212 227 220 213 209 201 202 207 202 241 271 254 267 270 274 295 296 295 291 291
198 194 197 192 189 194 206 217 214 213 213 208 202 205 212 213 206 206 215 210 211 218 222 217 230 225 223 218 208 211 215 210 222 261 276 269 263 262 273 283 290 287 286
192 192 196 196 197 204 212 215 215 215 218 211 202 211 217 215 212 212 214 216 217 222 222 220 227 219 232 227 218 219 223 224 219 241 268 268 273 268 285 283 281 283 289
190 194 204 210 210 211 210 208 212 212 213 214 216 218 218 215 214 213 210 220 224 229 230 227 227 223 229 230 227 224 222 223 224 234 258 266 266 263 259 277 293 285 290
194 205 216 216 210 203 204 210 210 210 216 213 212 222 221 218 217 210 209 219 225 236 242 239 236 237 237 236 234 224 214 219 225 236 251 259 259 262 262 256 278 295 286
205 215 213 202 203 205 208 208 209 220 222 211 213 215 221 231 237 231 219 214 221 230 244 250 251 252 253 254 253 245 227 220 224 231 245 249 255 249 253 260 274 296 295
212 215 209 202 205 210 203 196 210 219 214 213 217 214 224 238 243 239 231 217 220 230 236 245 258 258 264 249 261 264 255 247 239 230 237 243 248 240 240 255 253 259 266
215 218 212 204 208 206 200 208 214 211 209 212 215 217 226 244 245 243 237 219 227 237 237 235 243 257 256 248 243 259 261 257 254 242 235 243 245 241 233 240 251 262 269
223 222 215 205 202 199 209 216 215 205 216 216 213 210 223 255 252 244 235 202 229 247 248 240 241 246 259 262 244 253 268 270 271 260 256 260 265 265 258 245 248 267 287
233 228 215 202 199 204 210 209 203 199 211 205 217 219 220 240 255 250 235 188 223 254 265 259 262 262 265 263 235 231 257 265 259 269 271 278 278 277 273 244 232 252 275
241 227 217 210 207 205 199 195 187 187 186 204 225 236 231 239 253 251 242 204 208 231 250 256 257 278 281 276 267 242 253 263 247 247 258 264 266 263 261 251 234 231 251
228 225 227 220 211 196 185 191 186 182 194 217 231 257 252 250 252 254 248 248 244 224 240 243 252 279 287 286 280 270 273 276 238 246 257 261 263 263 257 254 251 246 245
222 230 233 224 212 195 187 189 191 189 200 219 221 243 261 253 257 262 258 257 258 255 246 264 278 286 291 285 278 278 280 258 238 251 259 262 256 258 262 269 270 269 268
230 236 228 219 220 208 201 195 197 202 209 217 224 236 249 251 246 239 232 244 255 260 262 275 290 298 299 288 284 283 261 237 241 247 260 263 261 261 261 260 273 288 292
239 238 229 219 216 216 216 212 210 213 209 214 224 223 226 247 247 245 244 233 228 238 263 264 262 286 287 282 279 270 258 253 256 247 253 264 266 267 268 257 252 264 273
243 240 231 224 221 216 220 247 240 233 240 239 236 232 239 249 260 255 257 262 263 259 264 251 256 255 259 263 268 269 260 252 251 253 253 253 262 266 271 268 259 260 274
237 239 232 223 220 220 216 218 252 274 248 243 241 241 245 253 257 255 254 258 261 258 249 246 250 252 257 258 258 257 258 256 254 255 256 256 256 259 265 270 269 270 273
242 237 229 224 220 218 217 219 219 229 249 260 250 249 254 256 257 256 252 252 254 245 238 247 251 253 254 253 254 256 259 260 255 252 252 251 250 254 261 264 263 264 272
245 241 231 224 219 218 216 218 222 228 238 254 270 267 258 258 260 256 245 228 236 247 247 249 250 251 251 250 250 250 251 253 252 249 251 250 247 249 258 258 259 268 270
248 247 236 222 218 216 214 219 228 231 236 241 247 250 246 254 257 254 238 233 241 251 252 253 255 252 250 249 249 248 250 252 254 252 250 251 248 246 253 257 258 261 263
246 246 242 233 221 219 220 226 231 234 239 244 249 247 243 244 244 245 243 244 245 251 253 254 254 253 250 248 247 247 249 255 255 254 253 251 250 253 254 256 256 256 260
234 235 230 228 226 226 232 231 235 240 244 251 260 256 249 249 241 246 250 253 249 248 248 252 255 253 247 244 244 246 251 254 255 253 254 252 249 252 256 256 256 256 258
231 231 235 236 234 244 250 239 241 244 247 250 256 259 256 248 247 251 255 257 255 257 255 252 257 259 255 248 241 239 247 251 250 247 250 253 251 251 250 252 253 258 258
229 229 232 237 235 230 235 245 247 248 246 251 256 256 255 255 257 259 260 261 260 260 260 257 255 256 260 262 257 253 253 254 251 245 241 246 248 249 248 252 254 256 256
228 228 231 233 234 235 239 246 250 250 252 254 256 259 259 259 260 262 262 262 263 264 264 262 260 259 261 263 265 265 265 266 264 257 245 242 243 243 247 250 252 256 254
232 233 235 235 236 236 238 244 249 251 252 255 254 254 256 258 260 263 264 265 268 269 269 268 264 266 269 270 270 271 273 274 271 267 257 243 239 243 244 248 249 251 249
Height
1487 1488 1488 1489 1490 1491 1491 1492 1493 1493 1494 1494 1494 1495 1496 1496 1497 1497 1498 1498 1499 1500 1500 1501 1501 1501 1501 1502 1501 1501 1501 1500 1498 1497 1498 1498 1498 1497 1496 1495 1494 1492 1491
1485 1485 1486 1487 1487 1488 1488 1489 1490 1490 1490 1491 1491 1491 1492 1492 1493 1494 1494 1494 1495 1495 1496 1496 1496 1497 1497 1497 1496 1496 1496 1495 1494 1492 1492 1493 1492 1491 1490 1489 1489 1487 1486
1482 1482 1483 1484 1484 1485 1486 1486 1487 1487 1487 1487 1487 1488 1488 1488 1489 1489 1490 1490 1490 1491 1491 1491 1492 1492 1492 1492 1492 1491 1491 1490 1489 1488 1487 1487 1486 1486 1484 1483 1483 1481 1480
1478 1478 1479 1480 1481 1482 1482 1483 1483 1483 1483 1483 1483 1484 1484 1485 1485 1485 1485 1485 1486 1486 1486 1486 1487 1487 1487 1487 1486 1486 1485 1485 1484 1483 1482 1481 1480 1479 1478 1477 1475 1475 1474
1475 1475 1476 1477 1478 1478 1479 1479 1479 1479 1479 1479 1480 1480 1481 1481 1481 1480 1480 1481 1481 1481 1481 1481 1481 1481 1481 1481 1481 1480 1480 1479 1478 1477 1476 1475 1474 1473 1472 1471 1469 1468 1467
1471 1472 1473 1474 1474 1475 1475 1475 1475 1475 1475 1475 1475 1476 1476 1476 1476 1476 1476 1476 1476 1476 1476 1476 1476 1476 1476 1476 1476 1475 1475 1474 1472 1472 1470 1469 1468 1468 1467 1465 1464 1462 1460
1468 1468 1469 1470 1470 1471 1471 1471 1471 1471 1471 1471 1471 1472 1472 1472 1472 1472 1472 1472 1472 1472 1472 1471 1471 1471 1471 1471 1470 1470 1469 1468 1468 1467 1465 1464 1463 1462 1461 1460 1459 1457 1455
1464 1465 1465 1466 1466 1467 1467 1467 1467 1467 1466 1466 1467 1467 1467 1468 1468 1468 1468 1468 1468 1468 1467 1467 1466 1466 1465 1465 1464 1463 1463 1462 1462 1461 1460 1459 1458 1457 1456 1455 1453 1451 1450
1461 1461 1462 1462 1462 1463 1463 1463 1463 1463 1462 1462 1463 1463 1463 1463 1464 1464 1463 1463 1463 1463 1462 1462 1461 1460 1460 1459 1458 1457 1457 1456 1456 1455 1454 1453 1452 1451 1451 1449 1448 1446 1443
1458 1458 1458 1458 1459 1459 1459 1459 1459 1459 1459 1459 1459 1459 1459 1459 1459 1459 1459 1458 1458 1457 1457 1456 1456 1455 1454 1454 1453 1452 1451 1451 1450 1449 1448 1448 1447 1446 1445 1444 1443 1441 1438
1455 1454 1455 1455 1455 1455 1455 1455 1455 1455 1455 1455 1455 1455 1455 1455 1455 1455 1454 1453 1453 1452 1452 1451 1451 1450 1450 1449 1448 1447 1446 1445 1444 1443 1442 1442 1441 1441 1440 1439 1437 1436 1434
1451 1451 1451 1451 1451 1451 1451 1451 1451 1451 1451 1451 1451 1450 1451 1451 1450 1450 1449 1449 1449 1448 1447 1447 1446 1445 1445 1444 1443 1443 1442 1441 1439 1438 1437 1436 1436 1435 1434 1433 1432 1430 1429
1447 1447 1447 1447 1447 1447 1447 1447 1447 1447 1447 1447 1446 1446 1446 1446 1446 1446 1446 1445 1444 1444 1443 1442 1442 1441 1440 1439 1439 1438 1437 1436 1435 1434 1432 1431 1431 1430 1429 1428 1426 1425 1424
1443 1443 1443 1443 1443 1443 1443 1443 1443 1443 1442 1442 1442 1442 1442 1442 1442 1441 1441 1441 1440 1440 1439 1438 1438 1437 1436 1435 1434 1434 1433 1432 1430 1429 1428 1427 1426 1425 1424 1422 1421 1419 1418
1439 1439 1439 1438 1438 1438 1438 1439 1438 1439 1439 1439 1438 1438 1438 1437 1437 1438 1437 1436 1436 1436 1435 1434 1433 1432 1431 1430 1430 1429 1428 1427 1426 1425 1423 1422 1421 1420 1419 1417 1416 1414 1412
1435 1434 1434 1434 1434 1433 1433 1434 1434 1434 1434 1434 1434 1434 1433 1433 1433 1433 1432 1432 1432 1431 1430 1429 1428 1427 1426 1426 1425 1424 1423 1422 1421 1420 1419 1417 1416 1415 1413 1412 1411 1409 1407
1430 1430 1429 1429 1429 1429 1428 1428 1428 1429 1429 1429 1429 1429 1429 1429 1428 1428 1428 1427 1427 1426 1425 1424 1423 1422 1422 1421 1420 1419 1418 1417 1416 1415 1414 1412 1411 1410 1408 1407 1406 1404 1403
1426 1425 1425 1424 1424 1424 1424 1424 1423 1423 1423 1423 1424 1424 1424 1424 1423 1423 1423 1422 1421 1421 1420 1419 1418 1418 1417 1416 1415 1414 1413 1412 1411 1410 1408 1407 1406 1405 1403 1402 1401 1399 1398
1421 1420 1420 1420 1419 1419 1419 1419 1419 1419 1419 1418 1419 1419 1419 1418 1418 1418 1417 1417 1416 1416 1415 1414 1414 1413 1412 1411 1410 1409 1408 1406 1405 1404 1403 1402 1401 1399 1398 1397 1396 1395 1394
1416 1416 1416 1415 1415 1414 1414 1414 1414 1414 1414 1413 1413 1413 1413 1413 1412 1412 1412 1412 1411 1411 1410 1409 1409 1408 1407 1406 1404 1403 1402 1401 1400 1399 1397 1396 1395 1394 1393 1392 1391 1390 1388
1412 1411 1411 1411 1410 1410 1410 1410 1409 1409 1409 1409 1409 1409 1408 1408 1407 1407 1407 1407 1406 1406 1405 1404 1403 1402 1401 1400 1399 1398 1396 1395 1394 1393 1392 1391 1390 1389 1388 1387 1386 1385 1384
1408 1407 1407 1406 1406 1406 1406 1406 1405 1405 1404 1404 1404 1404 1403 1403 1403 1402 1402 1402 1401 1401 1400 1399 1398 1397 1396 1395 1393 1392 1390 1389 1388 1387 1386 1385 1384 1383 1383 1382 1381 1380 1379
1404 1403 1403 1402 1402 1402 1401 1401 1401 1401 1400 1400 1399 1399 1399 1398 1398 1398 1397 1397 1396 1396 1395 1394 1393 1391 1390 1389 1388 1386 1385 1384 1383 1382 1381 1380 1379 1378 1377 1376 1376 1375 1374
1400 1399 1399 1398 1398 1397 1397 1396 1396 1396 1396 1396 1395 1395 1394 1394 1393 1393 1392 1392 1391 1390 1390 1388 1387 1386 1385 1384 1382 1381 1379 1378 1377 1376 1375 1374 1373 1373 1372 1371 1371 1370 1369
1396 1395 1395 1394 1394 1393 1393 1392 1392 1392 1392 1391 1391 1390 1390 1389 1388 1388 1387 1387 1386 1385 1384 1383 1382 1381 1379 1378 1377 1375 1374 1373 1372 1371 1370 1369 1368 1368 1367 1366 1366 1365 1364
1391 1391 1390 1390 1389 1389 1388 1388 1388 1388 1387 1387 1387 1386 1386 1385 1384 1383 1383 1382 1381 1380 1379 1378 1377 1375 1374 1373 1371 1370 1368 1367 1366 1365 1365 1364 1363 1363 1362 1362 1361 1360 1360